Location: Saint-Palais-sur-Mer
(45.6429°N, 1.0859°W)
Time: 16:09:49
(UTC+01:00)

S-56A Canister/Altair - Pass Details

Date: 16 February 2026
Orbit: 633 x 2484 km, 38.9° (Epoch: 16 March)

Event Time Altitude Azimuth Distance (km) Brightness Sun altitude
Exits shadow 03:03:49 23° 106° (ESE) 3,097 10.6 -49.9°
Drops below altitude 10° 03:07:45 10° 100° (E) 4,299 11.5 -49.5°
Sets 03:11:53 0° 97° (E) 5,560 12.3 -48.9°
